Volver al catálogo

STARLINK-33685

ActivoComunicacionesVLEO
NORAD 63465·PAYLOAD·🇺🇸 United States

Lanzado Apr 6, 2025 desde Cape Canaveral Space Force Station

Loading…

Próximos Pases (próximas 24 horas)

TLE

ActualizadoSource: CelesTrak SupGP

Época: Sep 14, 2026, 22:28 UTC

1 63465C 25070F   26257.93659722  .00026772  00000+0  96988-3 0  2576
2 63465  43.0005 271.1823 0001531 266.9621 235.5674 15.27558879    14

Sigue STARLINK-33685 en tiempo real con AllMySat

Download on the App Store